Regional Weather Roundup
Issued by NWS Kansas City/Pleasant Hill, MO

Home | Current Version | Previous Version | Text Only | Print | Product List | Glossary On
Versions: 1 2 3 4 5 6 7 8 9 10 11 12 13 14 15 16 17 18 19 20 21 22 23 24 25 26 27 28 29 30 31 32 33 34 35 36 37 38 39 40 41 42 43 44 45 46 47 48 49 50
000
ASUS43 KEAX 010110
RWREAX

WEATHER ROUNDUP FOR EASTERN KANSAS AND NORTHWEST MISSOURI
NATIONAL WEATHER SERVICE KANSAS CITY/PLEASANT HILL MO
800 PM CDT TUE SEP 30 2014

KSZ040-057-103>105-MOZ028-029-037-043-010200-
...KANSAS CITY METROPOLITAN AREA...

CITY           SKY/WX    TMP DP  RH WIND       PRES   REMARKS
K.C. INTL      PTCLDY    72  58  61 SE7       29.79S
K.C. DOWNTOWN  PTCLDY    79  57  46 SE9       29.78S
LEES SUMMIT    CLEAR     75  57  53 SE5       29.81S
OLATHE - IXD   PTCLDY    74  57  55 SE7       29.79S
OLATHE - OJC   CLEAR     73  58  59 SE7       29.79S
LAWRENCE       PTCLDY    73  58  59 SE8       29.77S

$$

MOZ001>008-011>017-020>025-030>033-038>040-044>046-053-054-010200-
...NORTHERN AND CENTRAL MISSOURI...

CITY           SKY/WX    TMP DP  RH WIND       PRES   REMARKS
ST. JOSEPH     CLOUDY    74  58  57 SE10      29.76S
MOSBY          PTCLDY    73  57  56 SE5       29.80S
WHITEMAN AFB   CLEAR     74  60  61 SE6       29.83R
CLINTON        CLEAR     72  63  73 CALM      29.83R HAZE
SEDALIA        CLEAR     72  59  63 SE5       29.84S
WARSAW         NOT AVBL
MARSHALL       CLEAR     73  61  64 S3        29.85R
CHILLICOTHE      N/A     72  62  71 E3        29.83R
MOBERLY        PTCLDY    72  61  68 E7        29.86R
KIRKSVILLE     CLEAR     66  32  28 E7        29.88R

$$

MOZ041-047>049-056>058-063>065-088>090-097-010200-
...EASTERN AND SOUTHERN MISSOURI...

CITY           SKY/WX    TMP DP  RH WIND       PRES   REMARKS
ST. LOUIS INTL PTCLDY    76  59  55 E9        29.88S
SPIRIT OF STL  CLEAR    N/A N/A N/A CALM      29.86R
COLUMBIA       CLEAR     74  56  53 CALM      29.85S
JEFFERSON CITY PTCLDY    71  60  68 SE6       29.83S
MEXICO         CLEAR     72  64  78 E5        29.86S
HANNIBAL       CLEAR     70  57  64 E5        29.88S
ROLLA          MOCLDY    72  53  51 SE6       29.86S
LEBANON        CLEAR     70  55  60 S5        29.88S
OSAGE BEACH    CLEAR     73  57  56 S3        29.85S
SPRINGFIELD    CLEAR     71  56  58 S6        29.85S
BRANSON        CLEAR     72  57  60 SE5       29.88S
NEVADA         CLEAR     70  59  68 SE5       29.82F HAZE
JOPLIN         CLEAR     75  61  61 SE8       29.82F
WEST PLAINS    CLEAR     65  54  67 CALM      29.91S

$$

IAZ060-094-KSZ022-034>040-054-083-096-NEZ052-066-093-010200-
...KANSAS...SOUTHEAST NEBRASKA AND IOWA...

CITY           SKY/WX    TMP DP  RH WIND       PRES   REMARKS
TOPEKA         PTCLDY    76  59  55 SE8       29.75S
MANHATTAN      MOCLDY    78  62  57 S12       29.71R
EMPORIA        CLEAR     75  62  64 SE14      29.75R
CHANUTE        CLEAR     74  62  66 SE8       29.78S
WICHITA        MOCLDY    78  60  53 SE13      29.70S
OMAHA          TSTM      66  63  90 SE13      29.79F FOG
LINCOLN        MOCLDY    63  61  93 E7        29.76S
FALLS CITY     CLOUDY    69  64  84 N5        29.76F
LAMONI         MOCLDY    68  63  84 E7        29.83R
DES MOINES     CLOUDY    68  58  70 E12       29.84S

$$




USA.gov is the U.S. government's official web portal to all federal, state and local government web resources and services.